Погода в Возрицах

Россия / Республика Карелия     62°40′32″N   35°23′18″E
темп.,
°C
ветер,
м/с
пор.,
м/с
влажн.,
%
обл.,
%
осадки,
мм/ч
давл.,
гПа
погр.,
м
12 мая, ср
ср1200:00+11ююз297785 0.0 1023164
03:00+10ю24856 0.0 102472
06:00+11ююв26848 0.0 1024150
09:00+17ю366425 0.0 1024374
12:00+19ю46505 0.0 1024565
15:00+21ю46430 0.0 1024775
18:00+20ю36470 0.0 1022452
21:00+15ююв22640 0.0 102219
13 мая, чт
чт1300:00+12ююв22650 0.0 102216
03:00+11ююв22670 0.0 102215
06:00+13ююв24720 0.0 1021106
09:00+18ю35591 0.0 1021340
12:00+22ю36473 0.0 1020965
15:00+23ююз46445 0.0 10181308
18:00+22ю35455 0.0 1017923
21:00+18вюв1166100 0.1 101617
14 мая, пт
пт1400:00+15в23804 0.0 101446
03:00+13в23843 0.0 101260
06:00+14ююв29865 0.3 1011367
09:00+14ю3689100 0.6 1011445
12:00+15ю477924 1.0 1012859
15:00+18ю584610 1.0 10121484
18:00+17ю47489 0.0 10121111
21:00+12ююв226774 0.0 101222
15 мая, сб
сб1500:00+10ююв117057 0.0 101212
03:00+11юв287093 0.0 1012199
06:00+12юв387428 0.0 1011259
09:00+17ююв47555 0.0 1010824
12:00+20ю464775 0.0 10091436
15:00+21ююз454739 0.0 10071582
18:00+19ю356110 0.2 1006768
21:00+14зсз1184100 0.8 100511
16 мая, вс
вс1600:00+12ссв259284 0.1 1005103
03:00+10с38926 0.1 1005232
06:00+9с499077 0.0 1006324
09:00+10с467861 0.0 1007509
12:00+13с446183 0.0 1008726
15:00+13ссз44586 0.0 1009844
18:00+9ссз557039 0.0 1011640
21:00+5ссз358287 0.0 1012445